Visibility
15.0 15.0 15.0 15.0 15.0 15.0 15.0 15.0 15.0 15.0 15.0 15.0 15.0 15.0 15.0 15.0 15.0 15.0 15.0 15.0 15.0 15.0 15.0 15.0 15.0 15.0 15.0 15.0 15.0 15.0 15.0 15.0 15.0 15.0 15.0 15.0 15.0 15.0 15.0 15.0 15.0 15.0 15.0
15.0 15.0 15.0 15.0 15.0 15.0 15.0 15.0 15.0 15.0 15.0 15.0 15.0 15.0 15.0 15.0 15.0 15.0 15.0 15.0 15.0 15.0 15.0 15.0 15.0 15.0 15.0 15.0 15.0 15.0 15.0 15.0 15.0 15.0 15.0 15.0 15.0 15.0 15.0 15.0 15.0 15.0 15.0
15.0 15.0 15.0 15.0 15.0 15.0 15.0 15.0 15.0 15.0 15.0 15.0 15.0 15.0 15.0 15.0 15.0 15.0 15.0 15.0 15.0 15.0 15.0 15.0 15.0 15.0 15.0 15.0 15.0 15.0 15.0 15.0 15.0 15.0 15.0 15.0 15.0 15.0 15.0 15.0 15.0 15.0 15.0
15.0 15.0 15.0 15.0 15.0 15.0 15.0 15.0 15.0 15.0 15.0 15.0 15.0 15.0 15.0 15.0 15.0 15.0 15.0 15.0 15.0 15.0 15.0 15.0 15.0 15.0 15.0 15.0 15.0 15.0 15.0 15.0 15.0 15.0 1.0 15.0 15.0 15.0 15.0 15.0 15.0 15.0 15.0
15.0 15.0 15.0 15.0 15.0 15.0 15.0 15.0 15.0 15.0 15.0 15.0 15.0 15.0 15.0 15.0 15.0 15.0 15.0 15.0 15.0 15.0 15.0 15.0 15.0 15.0 15.0 15.0 13.6 15.0 10.3 6.3 0.6 4.2 4.6 15.0 10.9 4.6 14.0 15.0 15.0 15.0 15.0
15.0 15.0 15.0 15.0 15.0 15.0 15.0 15.0 15.0 15.0 15.0 15.0 15.0 15.0 15.0 15.0 15.0 15.0 15.0 15.0 15.0 15.0 15.0 15.0 15.0 15.0 15.0 13.3 11.9 9.2 9.5 8.6 6.9 0.4 0.2 0.0 0.1 14.0 15.0 15.0 11.3 15.0 15.0
15.0 15.0 15.0 15.0 15.0 15.0 15.0 15.0 15.0 15.0 15.0 15.0 15.0 15.0 15.0 15.0 15.0 15.0 15.0 15.0 15.0 15.0 15.0 15.0 15.0 15.0 15.0 15.0 15.0 12.2 14.1 15.0 14.9 10.5 12.7 7.0 11.9 13.6 9.8 15.0 15.0 15.0 15.0
15.0 15.0 15.0 15.0 15.0 15.0 15.0 15.0 15.0 15.0 15.0 15.0 15.0 15.0 15.0 15.0 15.0 15.0 15.0 15.0 15.0 15.0 15.0 15.0 15.0 15.0 15.0 13.5 15.0 15.0 15.0 14.4 15.0 15.0 12.2 15.0 14.0 15.0 12.0 13.7 14.6 13.9 14.2
15.0 15.0 15.0 15.0 15.0 15.0 15.0 15.0 15.0 15.0 15.0 15.0 15.0 15.0 15.0 15.0 15.0 15.0 15.0 15.0 15.0 15.0 15.0 15.0 15.0 15.0 15.0 11.8 7.4 9.4 13.9 15.0 15.0 12.3 11.5 12.8 12.1 6.0 7.2 5.4 5.8 7.9 1.3
15.0 15.0 15.0 15.0 15.0 15.0 15.0 15.0 15.0 15.0 15.0 15.0 15.0 15.0 15.0 15.0 15.0 15.0 14.3 15.0 14.9 15.0 15.0 15.0 15.0 14.7 14.4 7.0 12.2 9.8 7.0 14.2 15.0 15.0 15.0 15.0 15.0 15.0 15.0 15.0 15.0 14.6 11.6
15.0 15.0 15.0 15.0 15.0 15.0 15.0 15.0 15.0 15.0 15.0 15.0 15.0 15.0 15.0 15.0 15.0 11.7 15.0 15.0 15.0 15.0 12.9 13.8 12.2 13.9 15.0 15.0 12.6 9.3 7.9 13.0 11.8 14.6 15.0 15.0 15.0 15.0 15.0 14.5 15.0 6.7 6.4
15.0 15.0 15.0 15.0 15.0 15.0 15.0 15.0 15.0 15.0 15.0 15.0 15.0 15.0 15.0 15.0 15.0 15.0 15.0 15.0 15.0 12.3 11.2 14.0 12.5 15.0 12.7 14.2 15.0 14.3 12.3 15.0 7.2 5.7 15.0 15.0 15.0 15.0 4.0 13.8 15.0 15.0 12.4
15.0 15.0 15.0 15.0 15.0 15.0 15.0 15.0 15.0 15.0 15.0 15.0 15.0 15.0 15.0 15.0 15.0 12.2 15.0 15.0 14.9 9.9 7.4 14.6 15.0 13.1 15.0 15.0 15.0 15.0 2.2 14.4 14.5 2.8 14.1 15.0 15.0 15.0 15.0 15.0 15.0 15.0 15.0
15.0 15.0 15.0 15.0 15.0 15.0 15.0 15.0 15.0 15.0 15.0 15.0 13.9 8.2 15.0 15.0 15.0 15.0 15.0 13.3 9.6 14.2 10.7 6.8 15.0 8.8 8.9 15.0 15.0 15.0 15.0 15.0 15.0 15.0 15.0 15.0 15.0 15.0 15.0 15.0 15.0 15.0 15.0
15.0 15.0 15.0 15.0 15.0 15.0 15.0 15.0 15.0 15.0 15.0 15.0 3.5 15.0 6.8 10.6 15.0 11.8 5.8 15.0 11.2 7.4 15.0 15.0 15.0 15.0 15.0 12.0 11.5 13.0 15.0 13.0 15.0 15.0 15.0 15.0 15.0 15.0 15.0 15.0 15.0 15.0 15.0
15.0 15.0 15.0 15.0 15.0 15.0 15.0 15.0 15.0 15.0 15.0 15.0 15.0 14.4 15.0 13.8 10.1 6.2 14.6 2.7 15.0 14.0 15.0 14.2 11.2 14.3 4.7 12.6 2.5 15.0 8.5 7.3 8.0 15.0 15.0 15.0 15.0 15.0 15.0 15.0 15.0 13.3 15.0
15.0 15.0 15.0 15.0 15.0 15.0 15.0 15.0 15.0 15.0 15.0 15.0 15.0 15.0 13.7 8.3 11.1 12.8 1.8 15.0 15.0 15.0 9.9 14.6 4.5 3.7 1.9 10.5 2.5 14.3 0.5 15.0 15.0 6.0 15.0 15.0 15.0 15.0 15.0 15.0 9.2 0.0 0.0
15.0 15.0 15.0 15.0 15.0 15.0 15.0 15.0 15.0 15.0 15.0 15.0 15.0 15.0 12.4 15.0 11.5 2.6 15.0 11.4 15.0 15.0 15.0 3.6 3.6 3.6 3.8 3.1 3.9 3.1 3.2 12.6 13.3 15.0 15.0 15.0 15.0 15.0 14.7 7.2 0.0 0.0 0.0
15.0 15.0 15.0 15.0 15.0 15.0 15.0 15.0 15.0 15.0 15.0 15.0 15.0 15.0 13.9 15.0 8.3 9.8 15.0 15.0 12.2 10.6 7.4 3.5 3.5 2.9 3.4 3.5 3.3 2.0 2.7 3.7 9.1 15.0 15.0 15.0 15.0 15.0 3.7 0.0 0.0 0.0 0.0
15.0 15.0 15.0 15.0 15.0 15.0 15.0 15.0 15.0 15.0 15.0 15.0 15.0 15.0 15.0 5.9 15.0 15.0 15.0 15.0 6.1 3.8 3.6 3.9 3.7 3.9 1.2 0.0 0.0 0.1 0.1 4.4 14.8 15.0 15.0 15.0 15.0 15.0 3.0 6.2 0.0 0.0 0.0
15.0 15.0 15.0 15.0 15.0 15.0 15.0 15.0 14.9 15.0 15.0 15.0 15.0 15.0 4.9 15.0 11.3 5.1 5.1 4.2 3.7 3.7 3.2 3.4 3.3 3.7 0.0 0.0 0.0 0.0 0.1 5.2 14.8 15.0 15.0 15.0 15.0 15.0 15.0 12.6 0.0 0.0 0.0
15.0 15.0 15.0 15.0 15.0 15.0 13.8 15.0 15.0 15.0 15.0 15.0 15.0 15.0 14.3 14.2 5.4 4.5 7.3 5.4 3.3 3.7 0.6 0.1 0.3 0.3 0.0 0.0 0.0 0.1 0.1 0.2 9.8 15.0 15.0 15.0 15.0 15.0 15.0 15.0 0.1 0.0 5.8
15.0 15.0 15.0 15.0 15.0 15.0 15.0 15.0 15.0 15.0 13.2 15.0 15.0 15.0 15.0 15.0 15.0 5.7 3.6 1.3 0.2 0.1 0.1 0.0 0.0 0.0 0.0 0.0 5.1 1.4 0.0 0.0 12.2 15.0 15.0 15.0 15.0 15.0 15.0 15.0 15.0 0.4 14.3
15.0 15.0 15.0 15.0 15.0 15.0 15.0 14.8 14.3 14.9 15.0 15.0 14.8 15.0 15.0 15.0 3.6 4.5 0.3 0.5 0.3 0.1 0.0 0.0 0.0 0.0 0.0 0.0 0.4 0.1 0.0 0.1 0.4 15.0 15.0 15.0 15.0 15.0 15.0 15.0 15.0 12.4 6.7
15.0 15.0 15.0 15.0 15.0 15.0 15.0 15.0 13.9 13.3 14.5 15.0 15.0 15.0 14.6 3.7 4.1 5.6 3.9 3.1 3.1 4.4 0.1 0.0 0.0 0.0 0.0 0.0 0.0 0.0 0.0 0.1 7.4 15.0 15.0 15.0 15.0 15.0 15.0 15.0 14.7 5.5 7.5
15.0 15.0 15.0 15.0 15.0 15.0 15.0 10.1 6.9 15.0 15.0 15.0 15.0 13.6 4.0 3.7 3.9 3.7 3.9 3.5 0.5 0.1 0.0 0.0 0.0 0.0 0.0 0.0 0.0 0.0 0.1 6.2 15.0 15.0 15.0 15.0 15.0 15.0 15.0 15.0 13.5 6.0 7.2